DECAYED
Showing default

MH-1, 59145 (Decayed)

Orbit data source: Space-Track

MH-1, 59145 was a Portuguese payload satellite in LEO that was launched on Mon, 04 Mar 2024 UTC via an FALCON 9 launch vehicle from the Air Force Western Test Range (AFWTR). Payload-class satellites include a variety of spacecraft equipped with specific instruments for various scientific and technological missions. These include communications satellites like Starlink; space stations such as the ISS; scientific satellites like the Hubble; Earth observation satellites from companies like Planet Labs, Umbra, and HawkEye 360; GPS; miniature CubeSats for education and research; and military/defense satellites.

Not visible in the next 10 days
Identifier
59145, 2024-043AZ
Orbit
Decayed
Country
Flag of PTPT / POR
Related business
Manufacturer
CEIIA
Mission
Decayed Commercial Imaging
Bus & Motor
CUBESAT 3U, Unknown motor
Mass
4.5 kg wet, 4.5 kg dry
Launch date (UTC)
2024-03-04 (2 years ago)
Launch vehicle
FALCON 9
Launch site
Air Force Western Test Range (AFWTR)
Object type
Payload
Rocket body
Debris
Shape & HBR
Box, 0.3 m
Radar Cross Section
0.035 m², Medium (>0.1 m² and < 1m²)

Expand to show TLE details & history
Last TLE update: 1 year ago

TLE from 1 year ago
0 MH-1
1 59145U 24043AZ  25099.53343022  .07666611  25414-5  15979-2 0  9991
2 59145  97.4738 238.8162 0014277 274.5372  85.4291 16.30743853 61562
Epoch: 2025-04-09T12:48Z
TLE epoch observation values (Epoch: 2025-04-09T12:48:08.371Z)
Latitude
-0.00002°
Longitude
-151.23746°
Altitude
193.044 km
Speed
7.791 km/s
True Right ascension
15h 55m 15s
True Declination
0° 00' 00"
Sunlit
Object was in full shadow at epoch
Visualization orbit readout
Latitude
Unknown
Longitude
Unknown
Altitude
Unknown
Speed
Unknown
Apparent Right ascension
Unknown
Apparent Declination
Unknown
Sunlit
N/A
Visualization observer readout
Local Sidereal Time
10:32:37
Azimuth
Unknown
Elevation
Unknown
Doppler factor
Unknown
Orbital elements
Apogee altitude
196.738 km
Perigee altitude
177.991 km
Semi-major axis
6,565.501 km
Eccentricity
0.00143
Inclination
97.4738°
RAAN
238.8162°
Arg. of periapsis
274.5372°
True anomaly
85.59221°
Mean anomaly
85.4291°
Eccentric anomaly
85.51065°
Mean motion
4.07982 °/min
Orbital period
88.24 mins
BSTAR
0.0015979
Loading maneuver chart data...
Computing Atmospheric mass density...
Loading historical data...
Loading historical data...
Loading historical data...
Loading historical data...
Loading historical data...
Loading historical data...
Loading historical data...

Documentation

Showing up to 5 results
|